This is the latest recevied weather packets stored in our database for station/object IW9CSJ-13. If no packets are shown the sender has not sent any weather packets the latest 10 day(s).
| Time | Temp. | Humidity | Pressure | Rain* | Wind** | Luminosity | Snow |
|---|---|---|---|---|---|---|---|
| 1777927819 | 16.11° C | 66% | 1017.6 hPa | 0 mm | - | - | - |
| 1777927219 | 16.11° C | 67% | 1017.7 hPa | 0 mm | - | - | - |
| 1777926919 | 16.11° C | 67% | 1017.7 hPa | 0 mm | - | - | - |
| 1777926320 | 15.56° C | 69% | 1017.9 hPa | 0 mm | - | - | - |
| 1777926023 | 15.56° C | 70% | 1017.9 hPa | 0 mm | - | - | - |
| 1777925121 | 15° C | 74% | 1017.9 hPa | 0 mm | - | - | - |
| 1777924521 | 15.56° C | 75% | 1017.9 hPa | 0 mm | - | - | - |
| 1777923622 | 15° C | 77% | 1017.9 hPa | 0 mm | - | - | - |
| 1777923321 | 15.56° C | 77% | 1017.8 hPa | 0 mm | - | - | - |
| 1777923020 | 15° C | 78% | 1017.7 hPa | 0 mm | - | - | - |
| 1777922720 | 15° C | 78% | 1017.7 hPa | 0 mm | - | - | - |
| 1777922122 | 15° C | 78% | 1017.7 hPa | 0 mm | - | - | - |
| 1777921819 | 15° C | 78% | 1017.7 hPa | 0 mm | - | - | - |
| 1777920021 | 15° C | 78% | 1017.3 hPa | 0 mm | - | - | - |
| 1777919722 | 15° C | 78% | 1017.4 hPa | 0 mm | - | - | - |
| 1777919423 | 15° C | 78% | 1017.3 hPa | 0 mm | - | - | - |
| 1777919121 | 15.56° C | 78% | 1017.2 hPa | 0 mm | - | - | - |
| 1777918822 | 15.56° C | 78% | 1017.2 hPa | 0 mm | - | - | - |
| 1777918221 | 15.56° C | 76% | 1017.2 hPa | 0 mm | - | - | - |
| 1777917918 | 15.56° C | 76% | 1017.3 hPa | 0 mm | - | - | - |
| 1777917620 | 15.56° C | 75% | 1017.1 hPa | 0 mm | - | - | - |
| 1777917320 | 15.56° C | 75% | 1017.1 hPa | 0 mm | - | - | - |
| 1777917020 | 16.11° C | 74% | 1017 hPa | 0 mm | - | - | - |
| 1777916421 | 16.11° C | 73% | 1017.1 hPa | 0 mm | - | - | - |
| 1777916121 | 16.11° C | 73% | 1017 hPa | 0 mm | - | - | - |
* Rain latest hour (hover to see other rain measurements)
** Current wind speed in m/s (hover to see current wind gust speed)